星链-4107 (STARLINK-4107 )

导读 | 星芒AI

STARLINK-4107 是由 SpaceX 开发的星链(Starlink)卫星网络中的一颗低轨道通信卫星。它属于星链计划的第四批发射任务,旨在为全球用户提供高速互联网服务。该卫星采用先进的推进和通信技术,支持宽带数据传输,助力偏远地区实现网络覆盖。作为星链系统的一部分,STARLINK-4107 与其他数千颗卫星协同工作,构建起全球性的卫星互联网基础设施。

基本信息
目录编号:
53287
目录名称:
STARLINK-4107
国际标识:
2022-086AX
轨道中心:
EARTH
卫星名称:
星链-4107
卫星全名:
星链-4107 (STARLINK-4107 )
卫星状态:
在轨 (已飞行1200 天)
发射日期:
2022-07-24 UTC
国别 :
美国 (US)
星等 :
--
轨道信息
数据来源 国际轨道数据
星历时间: 2025-11-04T23:45:35+0800
11小时前
查看轨道信息
半长轴: 6917.88km
偏心率: 0.0001507
轨道倾角: 53.220°
近地点辐角 93.868°
升交点赤经 25.415°
平近点角 266.249°
近地点: 538.702km
远地点: 540.788km
周期: 95.438分钟
每日圈数: 15.088404
详细信息
固有亮度:
5
最大亮度:
2.5
卫星平台:
Starlink v1.5
覆盖范围:
全球
运营商:
太空探索技术公司
运营商所在国:
美国
制造商(研发单位):
太空探索技术公司
制造商所在国:
美国
使用方式:
暂无
卫星简介
星链(Starlink)计划是由太空探索技术公司(SpaceX)提出的一个巨型低轨卫星互联网星座项目,计划在2019年至2024年间在太空搭建由约1.2万颗卫星组成的“星链”网络,其中1584颗将部署在地球上空550千米处的近地轨道,并从2020年开始工作。该卫星仍在工作。
2D轨道图
3D轨道图
轨道高度分析图
轨道倾角分析图
轨道综合分析图
查看轨道综合分析图